Regional Weather Roundup
Issued by NWS Green Bay, WI

Home | Current Version | Previous Version | Text Only | Print | Product List | Glossary On
Versions: 1 2 3 4 5 6 7 8 9 10 11 12 13 14 15 16 17 18 19 20 21 22 23 24 25 26 27 28 29 30 31 32 33 34 35 36 37 38 39 40 41 42 43 44 45 46 47 48 49 50
000
ASUS43 KGRB 060410
RWRGRB

NORTH-CENTRAL AND NORTHEAST WISCONSIN REGIONAL WEATHER ROUNDUP
NATIONAL WEATHER SERVICE GREEN BAY WI
1000 PM CST THU MAR 05 2015

WIZ005-009-010>012-018-019-060500-
NORTH CENTRAL WISCONSIN

CITY           SKY/WX    TMP DP  RH WIND       PRES   REMARKS
IRONWOOD       CLEAR      7  -9  47 SW12      30.24S WCI  -9
MANITOWISH WTR PTCLDY     1 -13  53 SW8       30.25F WCI -14
ARBOR VITAE    PTCLDY     3 -10  53 SW5       30.27S WCI  -6
EAGLE RIVER    PTCLDY     2 -13  48 SW8       30.26S WCI -12
LAND O LAKES   PTCLDY     3 -12  48 SW5       30.25S WCI  -6
RHINELANDER    PTCLDY     1 -11  57 SW9       30.29S WCI -14
PHILLIPS       PTCLDY     2  -8  62 SW7       30.29S WCI -11
ANTIGO         PTCLDY    -3 -10  70 SW5       30.33R WCI -13
TOMAHAWK         N/A      0 -11  60 CALM      30.32S
MERRILL        CLEAR     -2 -11  66 CALM      30.35S
$$

WIZ013-073-060500-
NORTHEAST WISCONSIN

CITY           SKY/WX    TMP DP  RH WIND       PRES   REMARKS
IRON MOUNTAIN  CLEAR      5 -10  50 SW6       30.29S WCI  -6
MARINETTE      CLEAR      7  -8  51 W5        30.39S WCI  -2
OCONTO         PTCLDY     4  -8  56 W5        30.42S WCI  -5
$$

WIZ017-030-035>037-045-060500-
CENTRAL WISCONSIN

CITY           SKY/WX    TMP DP  RH WIND       PRES   REMARKS
MEDFORD        CLEAR      1 -10  60 SW6       30.33S WCI -11
WAUSAU         CLEAR      2 -11  54 SW5       30.36S WCI  -8
MOSINEE        CLEAR      1  -9  60 SW3       30.38S
MARSHFIELD     PTCLDY     2  -9  60 W8        30.38R WCI -12
WISC RAPIDS    MOCLDY     6  -8  52 SW8       30.43R WCI  -7
STEVENS POINT  PTCLDY    -2 -11  65 SW3       30.40S
WAUPACA        PTCLDY     7  -6  55 SW5       30.43S WCI  -2
SHAWANO        PTCLDY     6  -7  55 CALM      30.41F
CLINTONVILLE   PTCLDY     3  -8  60 SW5       30.41S WCI  -6
$$

WIZ038-039-048-051-060500-
FOX VALLEY

CITY           SKY/WX    TMP DP  RH WIND       PRES   REMARKS
NWS GREEN BAY  PTCLDY     4  -7  60 SW6       30.43S WCI  -7
APPLETON       CLEAR      7  -8  51 W8        30.42S WCI  -6
OSHKOSH        PTCLDY     7  -6  55 SW3       30.44R
FOND DU LAC    PTCLDY     7  -4  60 SW8       30.45R WCI  -6
$$

WIZ022-050-052-060500-
EAST CENTRAL WISCONSIN

CITY           SKY/WX    TMP DP  RH WIND       PRES   REMARKS
STURGEON BAY   PTCLDY     7  -8  51 SW7       30.42S WCI  -5
MANITOWOC      MOCLDY     5  -4  66 S5        30.45S WCI  -4
SHEBOYGAN      MOCLDY     2  -7  66 SW10      30.46R WCI -14
$$

LMZ563-521-522-541>543-060500-
LAKESHORE

STATION/POSITION TIME  TEMP    WIND        PRES    VSBY  WAVE
                       AIR SEA DIR/SP/G                  HT/PER
                 (UTC) (F)     (DEG/KT/KT) (MB)    (MI)  (FT/S)
SHEBOYGAN LKSHOR 0400   11     210/ 13/ 15 1033.6R
KEWAUNEE LKSHORE 0400    8     280/  1/  6 1029.6F
NORTHPORT PIER   0400    9     240/  6/ 15 1029.1S
SISTER BAY LKSHO 0300    9     240/ 13/ 16   N/A
CHAMBERS ISLAND  0400    7     210/  8/ 11 1029.5R
MENOMINEE LKSHOR 0400    9     230/  8     1029.9F
$$



USA.gov is the U.S. government's official web portal to all federal, state and local government web resources and services.